Tracking 32427 objects as of 11-Dec-2025
HD Live streaming from Space Station
objects crossing your sky now

USA 17

Track USA 17 now!
10-day predictions
USA 17 is classified as:


NORAD ID: 16625
Int'l Code: 1986-014F
Perigee: 406.4 km
Apogee: 1,589.6 km
Inclination: 63.3 °
Period: 104.9 minutes
Semi major axis: 7368 km
RCS: Unknown
Launch date: February 9, 1986
Source: United States (US)
Launch site: AIR FORCE WESTERN TEST RANGE (AFWTR)
Your satellite tracking list
Your tracking list is empty




NASA's NSSDC Master Catalog

Two Line Element Set (TLE):
1 16625U 86014F   25344.77612459  .00006219  00000-0  56112-3 0  9994
2 16625  63.3000 256.8352 0802815 112.2818 256.5308 13.72437721316941
Source of the keplerian elements: AFSPC